Location: *
(29.1167°S, 130.0000°E)
Time: 00:09:57
(UTC+00:00)

YAOGAN 1 - Pass Details

Date: 21 July 2019
Orbit: 619 x 621 km, 98.0° (Epoch: 23 August)

Event Time Altitude Azimuth Distance (km) Brightness Sun altitude
Exits shadow 10:10:48 42° 93° (E) 893 2.9 -19.1°
Maximum altitude 10:11:07 43° 81° (E) 881 2.9 -19.2°
Drops below altitude 10° 10:15:14 10° 9° (N) 1,986 5.2 -20.1°
Sets 10:17:29 0° 2° (N) 2,884 6.1 -20.5°
